STARLINK-35180

Last updated on Tue Sep 16 2025 00:02:08 GMT+0000 (Coordinated Universal Time)

1 65462U 25195E 25257.90246888 -.00707769 00000+0 -45111-2 0 9992 2 65462 53.1555 0.8431 0003253 27.1840 332.9351 15.77586228 2997
UTC large
Height (km)
Speed (km/s)
/
Latitude / Longitude
Inclination (degrees)
Orbital Period (minutes)
Azimuth
Elevation
Range (km)
Doppler Factor

Next 0 passes for location: London (51.5072 / 0.1276)

Sorry there are no passes over London.